DW0630 Weather Reports


Display with metric or nautical units.
time (UTC)temp
F
wind
direction
speed
MPH
gust
MPH
rain 1hr
in
rain 24hr
in
rain mn
in
humidity
%
barometer
mb
20190123031523 34 267 5.0 6.0 0.00 0.27 0.01 90 998.1
20190123031043 34 267 5.0 6.0 0.00 0.27 0.01 91 998.2
20190123030522 33 267 1.0 3.0 0.00 0.27 0.01 91 998.1
20190123030023 33 267 0.0 0.0 0.00 0.27 0.01 90 998.1
20190123025523 33 267 1.0 3.0 0.00 0.27 0.01 90 998.1
20190123025043 33 267 0.0 0.0 0.00 0.27 0.01 90 998.2
20190123024522 33 267 0.0 2.0 0.00 0.27 0.01 90 998.4
20190123024043 33 267 0.0 0.0 0.00 0.27 0.01 90 998.4
20190123023523 33 267 0.0 0.0 0.01 0.27 0.01 90 998.3
20190123023045 33 267 0.0 0.0 0.01 0.27 0.01 90 998.5
20190123022523 33 267 0.0 0.0 0.01 0.27 0.01 90 998.5
20190123022045 33 267 0.0 0.0 0.01 0.27 0.01 90 998.6
20190123021522 34 267 0.0 2.0 0.01 0.27 0.01 90 998.8
20190123021046 34 267 0.0 7.0 0.01 0.27 0.01 90 998.8
20190123020023 34 267 5.0 5.0 0.01 0.27 0.01 90 998.7
20190123015522 34 267 5.0 6.0 0.01 0.27 0.01 90 998.5
20190123015042 34 267 4.0 6.0 0.01 0.27 0.01 90 998.3
20190123014523 34 267 2.0 6.0 0.01 0.27 0.01 90 998.0
20190123014042 34 267 5.0 6.0 0.01 0.27 0.01 90 997.8
20190123013522 34 267 5.0 5.0 0.01 0.27 0.01 90 997.8
20190123013044 34 267 4.0 6.0 0.01 0.27 0.01 90 997.8
20190123012522 34 267 5.0 7.0 0.01 0.27 0.01 90 998.2
20190123012043 34 267 5.0 7.0 0.01 0.27 0.01 90 998.3
20190123011524 34 267 1.0 5.0 0.00 0.26 0.00 90 998.2
20190123011043 34 267 5.0 6.0 0.00 0.26 0.00 90 998.2
20190123010522 34 267 2.0 6.0 0.00 0.26 0.00 90 998.4
20190123010022 34 267 0.0 5.0 0.00 0.26 0.00 90 998.4
20190123005522 34 267 0.0 0.0 0.00 0.26 0.00 90 998.3
20190123005042 34 267 0.0 6.0 0.00 0.26 0.00 90 998.1
20190123004522 34 267 5.0 7.0 0.00 0.26 0.00 90 998.1
20190123004042 34 267 5.0 7.0 0.00 0.26 0.00 90 998.1
20190123003522 34 267 6.0 9.0 0.00 0.26 0.00 90 998.2
20190123003104 34 267 7.0 10.0 0.00 0.26 0.00 90 998.2
20190123002528 34 267 5.0 9.0 0.00 0.26 0.00 90 998.3
20190123001912 34 267 5.0 10.0 0.00 0.26 0.00 90 998.2
20190123000522 34 267 5.0 6.0 0.00 0.26 0.00 90 998.1
20190123000021 34 267 5.0 6.0 0.00 0.26 0.00 90 998.1
20190122235521 34 267 2.0 6.0 0.00 0.26 0.10 90 998.0
20190122235042 34 267 0.0 6.0 0.00 0.27 0.10 90 998.0
20190122234522 34 267 3.0 5.0 0.00 0.27 0.10 90 997.8
20190122234044 35 267 3.0 5.0 0.00 0.27 0.10 90 997.7
20190122233521 34 267 0.0 0.0 0.00 0.28 0.10 90 997.9
20190122233042 34 267 0.0 0.0 0.00 0.28 0.10 90 997.9
20190122232522 34 267 0.0 0.0 0.00 0.28 0.10 90 997.9
20190122232042 34 267 0.0 0.0 0.00 0.28 0.10 90 998.0
20190122231523 34 267 2.0 5.0 0.00 0.28 0.10 90 998.1
20190122231042 34 267 5.0 7.0 0.00 0.28 0.10 90 998.0
20190122230521 34 267 0.0 5.0 0.00 0.28 0.10 90 998.0
20190122230022 35 267 0.0 0.0 0.00 0.28 0.10 90 998.2
20190122225522 35 267 0.0 0.0 0.00 0.28 0.10 90 998.2
20190122225044 35 267 0.0 0.0 0.00 0.28 0.10 90 998.2
20190122224521 35 267 0.0 0.0 0.00 0.28 0.10 90 998.1
20190122224042 35 267 0.0 0.0 0.00 0.28 0.10 90 998.0
20190122223522 35 267 0.0 0.0 0.00 0.28 0.10 90 997.9
20190122223044 35 267 0.0 0.0 0.00 0.28 0.10 90 998.0
20190122222522 35 267 0.0 0.0 0.00 0.28 0.10 90 998.2
20190122222043 35 267 0.0 0.0 0.00 0.28 0.10 90 998.3
20190122221522 36 267 1.0 7.0 0.00 0.28 0.10 90 998.4
20190122221042 36 267 5.0 7.0 0.00 0.28 0.10 90 998.5
20190122220522 36 267 6.0 10.0 0.00 0.28 0.10 90 998.6
20190122220021 35 267 5.0 9.0 0.00 0.28 0.10 90 998.6
20190122215521 35 267 5.0 9.0 0.00 0.28 0.10 90 998.7
20190122215042 35 267 5.0 7.0 0.00 0.28 0.10 90 998.7
20190122214521 35 267 5.0 7.0 0.00 0.28 0.10 90 998.7
20190122214041 35 267 4.0 7.0 0.00 0.28 0.10 90 998.7
20190122213522 35 267 5.0 7.0 0.00 0.28 0.10 90 998.7
20190122213042 35 267 5.0 6.0 0.00 0.28 0.10 90 998.6
20190122212522 35 267 0.0 0.0 0.00 0.28 0.10 90 998.7
20190122212041 35 267 0.0 0.0 0.00 0.28 0.10 90 998.6
20190122211521 35 267 0.0 0.0 0.00 0.28 0.10 90 998.6
20190122211043 35 267 0.0 1.0 0.00 0.28 0.10 90 998.6
20190122210521 35 267 0.0 0.0 0.00 0.28 0.10 90 998.6
20190122210023 35 267 0.0 0.0 0.00 0.28 0.10 90 998.6
20190122205525 35 267 1.0 6.0 0.00 0.28 0.10 90 998.5
20190122205041 35 267 3.0 6.0 0.00 0.28 0.10 90 998.5
20190122204521 36 267 2.0 6.0 0.00 0.28 0.10 90 998.5
20190122204041 36 267 3.0 3.0 0.00 0.28 0.10 90 998.6
20190122203521 36 267 2.0 5.0 0.00 0.28 0.10 90 998.6
20190122203043 36 267 4.0 5.0 0.00 0.28 0.10 90 998.7
20190122202521 36 267 1.0 3.0 0.00 0.28 0.10 90 998.6
20190122202041 36 267 3.0 5.0 0.00 0.28 0.10 90 998.6
20190122201524 35 267 3.0 5.0 0.00 0.28 0.10 90 998.7
20190122201041 35 267 0.0 0.0 0.00 0.28 0.10 90 998.7
20190122200521 36 267 0.0 0.0 0.00 0.28 0.10 90 998.6
20190122200022 36 267 0.0 0.0 0.00 0.28 0.10 90 998.6
20190122195521 36 267 0.0 0.0 0.00 0.28 0.10 90 998.7
20190122195042 36 267 1.0 6.0 0.00 0.28 0.10 90 998.7
20190122194520 36 267 4.0 5.0 0.00 0.28 0.10 90 998.6
20190122194041 36 267 4.0 6.0 0.00 0.28 0.10 90 998.6
20190122193522 36 267 5.0 7.0 0.00 0.28 0.10 90 998.5
20190122193043 36 267 5.0 6.0 0.00 0.28 0.10 90 998.4
20190122192521 36 267 1.0 5.0 0.00 0.28 0.10 90 998.4
20190122192041 36 267 0.0 0.0 0.00 0.28 0.10 90 998.5
20190122191523 37 267 1.0 5.0 0.00 0.28 0.10 90 998.5
20190122191041 37 267 4.0 6.0 0.00 0.28 0.10 90 998.6
20190122190520 37 267 2.0 6.0 0.00 0.28 0.10 90 998.7
20190122190020 37 267 3.0 6.0 0.00 0.28 0.10 90 998.7
20190122185520 37 267 3.0 7.0 0.00 0.28 0.10 90 998.7
20190122185041 37 267 1.0 7.0 0.00 0.28 0.10 90 998.8
20190122184521 37 267 4.0 6.0 0.00 0.28 0.10 90 998.8
20190122184042 37 267 5.0 6.0 0.00 0.28 0.10 90 998.8
20190122183521 37 267 2.0 7.0 0.00 0.28 0.10 90 998.9
20190122183042 37 267 5.0 9.0 0.00 0.28 0.10 90 998.9
20190122182520 37 267 3.0 9.0 0.00 0.28 0.10 90 998.9
20190122182040 37 267 5.0 7.0 0.00 0.28 0.10 90 999.0
20190122181521 37 267 5.0 7.0 0.00 0.28 0.10 90 999.0
20190122181041 37 267 4.0 7.0 0.00 0.28 0.10 90 998.9
20190122180520 37 267 5.0 6.0 0.00 0.28 0.10 90 999.0
20190122180021 37 267 5.0 6.0 0.00 0.28 0.10 90 999.1
20190122175521 37 267 5.0 7.0 0.00 0.28 0.10 90 999.1
20190122175041 37 267 6.0 13.0 0.00 0.28 0.10 90 999.1
20190122174520 37 265 6.0 8.0 0.00 0.28 0.10 90 999.1
20190122174041 37 265 7.0 10.0 0.00 0.28 0.10 90 999.0
20190122173520 37 265 7.0 10.0 0.00 0.28 0.10 90 999.1
20190122173042 37 265 7.0 12.0 0.00 0.28 0.10 90 999.2
20190122172521 37 265 7.0 10.0 0.00 0.28 0.10 90 999.1
20190122172041 37 265 7.0 10.0 0.00 0.28 0.10 90 999.1
20190122171520 38 265 6.0 9.0 0.00 0.28 0.10 90 999.0
20190122171043 38 265 6.0 7.0 0.00 0.28 0.10 90 999.0
20190122170520 38 265 6.0 10.0 0.00 0.28 0.10 90 999.0
20190122170021 38 265 7.0 12.0 0.00 0.28 0.10 90 999.2
20190122165520 39 265 7.0 12.0 0.00 0.28 0.10 90 999.3
20190122165040 39 265 7.0 12.0 0.01 0.28 0.10 90 999.2
20190122164520 39 265 8.0 12.0 0.01 0.28 0.10 90 999.1
20190122164040 39 265 8.0 12.0 0.01 0.28 0.10 90 999.1
20190122163520 39 265 6.0 12.0 0.01 0.28 0.10 90 999.0
20190122163040 39 265 7.0 12.0 0.01 0.28 0.10 90 999.0
20190122162520 39 265 5.0 9.0 0.01 0.28 0.10 90 999.0
20190122162041 39 265 6.0 12.0 0.01 0.28 0.10 90 999.0
20190122161520 39 265 6.0 12.0 0.01 0.28 0.10 90 999.1
20190122161040 39 265 5.0 9.0 0.01 0.28 0.10 90 999.0
20190122160520 39 265 6.0 10.0 0.02 0.28 0.10 90 999.0
20190122160020 39 265 5.0 7.0 0.03 0.28 0.10 90 999.1
20190122155519 39 265 3.0 6.0 0.03 0.28 0.10 90 999.1
20190122155041 39 265 3.0 7.0 0.03 0.28 0.10 90 999.1
20190122154519 39 265 6.0 9.0 0.05 0.28 0.10 90 999.0
20190122154040 39 265 7.0 12.0 0.06 0.28 0.10 90 999.1
20190122153520 39 265 6.0 9.0 0.05 0.27 0.09 90 999.1
20190122153040 39 265 6.0 9.0 0.05 0.27 0.09 90 999.2
20190122152520 39 265 5.0 7.0 0.06 0.27 0.09 90 999.2
20190122152040 39 265 6.0 12.0 0.06 0.27 0.09 90 999.3
20190122151520 39 265 5.0 7.0 0.07 0.27 0.09 90 999.2
20190122151040 39 265 4.0 7.0 0.07 0.27 0.09 90 999.2
20190122150519 39 265 6.0 7.0 0.07 0.27 0.09 90 999.3
20190122150019 39 265 5.0 7.0 0.08 0.27 0.09 90 999.3
20190122145519 38 265 7.0 12.0 0.08 0.27 0.09 90 999.3
20190122145040 38 265 7.0 10.0 0.07 0.26 0.08 90 999.4
20190122144519 38 264 9.0 12.0 0.06 0.25 0.07 89 999.4
20190122144040 38 265 8.0 15.0 0.06 0.25 0.07 89 999.5
20190122143519 39 264 7.0 14.0 0.07 0.25 0.07 89 999.5
20190122143040 39 263 13.0 17.0 0.06 0.24 0.06 89 999.8
20190122142519 39 241 11.0 16.0 0.04 0.22 0.04 89 999.8
20190122142040 39 230 10.0 16.0 0.04 0.22 0.04 89 999.8
20190122141519 39 223 7.0 12.0 0.04 0.22 0.04 89 999.8
20190122141040 39 223 9.0 12.0 0.03 0.21 0.03 89 999.8
20190122140519 40 223 10.0 14.0 0.03 0.21 0.03 89 999.9
20190122140020 40 219 9.0 13.0 0.02 0.20 0.02 89 1000.1
20190122135520 40 216 10.0 13.0 0.02 0.20 0.02 89 1000.1
20190122135040 40 213 9.0 12.0 0.02 0.20 0.02 88 1000.1
20190122134519 40 210 10.0 13.0 0.01 0.19 0.01 88 1000.1
20190122134039 40 209 9.0 12.0 0.01 0.19 0.01 88 1000.2
20190122133519 40 209 8.0 12.0 0.01 0.19 0.01 88 1000.3
20190122133040 40 209 7.0 12.0 0.01 0.19 0.01 88 1000.3
20190122132519 40 209 6.0 10.0 0.01 0.19 0.01 88 1000.4
20190122132039 40 209 5.0 10.0 0.01 0.19 0.01 88 1000.4
20190122131519 40 209 6.0 10.0 0.00 0.18 0.00 88 1000.5
20190122131040 40 209 9.0 13.0 0.00 0.18 0.00 88 1000.7
20190122130520 40 204 6.0 12.0 0.00 0.18 0.00 88 1000.9
20190122130020 41 213 5.0 9.0 0.00 0.18 0.00 88 1001.0
20190122125525 41 213 6.0 12.0 0.00 0.18 0.00 88 1001.2
20190122125040 41 212 5.0 12.0 0.00 0.18 0.00 88 1001.3
20190122124519 41 212 6.0 12.0 0.00 0.18 0.00 88 1001.4
20190122124039 40 213 7.0 12.0 0.00 0.18 0.00 88 1001.4
20190122123519 40 215 7.0 12.0 0.00 0.18 0.00 88 1001.6
20190122123039 40 215 9.0 12.0 0.00 0.18 0.00 88 1001.6
20190122122519 40 215 9.0 12.0 0.00 0.18 0.00 87 1001.8
20190122122039 40 215 7.0 10.0 0.00 0.18 0.00 88 1002.0
20190122121519 40 215 7.0 13.0 0.00 0.18 0.00 88 1002.1
20190122121039 40 212 8.0 14.0 0.00 0.18 0.00 88 1002.3
20190122120519 40 204 7.0 13.0 0.00 0.18 0.00 88 1002.4
20190122120019 40 204 9.0 13.0 0.00 0.18 0.00 88 1002.5
20190122115518 40 207 6.0 9.0 0.00 0.18 0.00 88 1002.6
20190122115039 40 207 6.0 9.0 0.00 0.18 0.00 88 1002.8
20190122114519 40 207 6.0 9.0 0.00 0.18 0.00 88 1002.8
20190122114039 40 207 6.0 10.0 0.00 0.18 0.00 88 1002.9
20190122113520 40 207 10.0 13.0 0.00 0.18 0.00 88 1002.8
20190122113039 40 228 9.0 12.0 0.00 0.18 0.00 88 1002.9
20190122112519 40 228 6.0 10.0 0.00 0.18 0.00 88 1003.1
20190122112039 40 228 6.0 10.0 0.00 0.18 0.00 88 1003.2
20190122111518 40 228 7.0 9.0 0.00 0.18 0.00 88 1003.2
20190122111039 40 228 6.0 9.0 0.00 0.18 0.00 88 1003.3
20190122110519 40 228 6.0 7.0 0.00 0.18 0.00 88 1003.3
20190122110018 39 228 7.0 10.0 0.00 0.18 0.00 88 1003.3
20190122105519 39 228 6.0 10.0 0.00 0.18 0.00 88 1003.3
20190122105039 39 228 7.0 12.0 0.00 0.18 0.00 88 1003.4
20190122104519 39 228 8.0 12.0 0.00 0.18 0.00 88 1003.4
20190122104039 40 230 7.0 12.0 0.00 0.18 0.00 88 1003.4
20190122103518 40 230 5.0 10.0 0.00 0.18 0.00 88 1003.4
20190122103039 40 230 6.0 12.0 0.00 0.18 0.00 88 1003.5
20190122102519 39 232 5.0 7.0 0.00 0.18 0.00 88 1003.4
20190122102039 39 232 5.0 9.0 0.00 0.18 0.00 89 1003.5
20190122101518 39 232 6.0 9.0 0.00 0.18 0.00 88 1003.5
20190122101038 39 232 7.0 12.0 0.00 0.18 0.00 88 1003.6
20190122100518 38 234 6.0 12.0 0.00 0.18 0.00 89 1003.7
20190122100019 38 234 6.0 10.0 0.00 0.18 0.00 89 1003.7
20190122095518 38 234 7.0 12.0 0.00 0.18 0.00 88 1003.8
20190122095038 38 234 6.0 10.0 0.00 0.18 0.00 88 1003.7
20190122094518 38 234 7.0 10.0 0.00 0.18 0.00 89 1003.8
20190122094041 38 234 7.0 12.0 0.00 0.18 0.00 89 1003.9
20190122093518 38 234 8.0 12.0 0.00 0.18 0.00 89 1003.9
20190122093038 38 234 7.0 12.0 0.00 0.18 0.00 89 1003.9
20190122092518 38 234 9.0 12.0 0.00 0.18 0.00 89 1003.9
20190122092038 37 234 9.0 12.0 0.00 0.18 0.00 89 1004.0
20190122091521 37 234 7.0 12.0 0.00 0.18 0.00 89 1004.0
20190122091038 37 234 9.0 13.0 0.00 0.18 0.00 89 1004.0
20190122090521 37 234 9.0 12.0 0.00 0.18 0.00 89 1004.0
20190122090018 37 235 10.0 14.0 0.00 0.18 0.00 89 1004.0
20190122085518 36 234 11.0 15.0 0.00 0.18 0.00 89 1004.1
20190122085038 36 230 12.0 15.0 0.00 0.18 0.00 90 1004.1
20190122084519 36 226 9.0 14.0 0.00 0.18 0.00 90 1004.1
20190122084038 36 225 9.0 12.0 0.00 0.18 0.00 90 1004.1
20190122083518 35 221 8.0 12.0 0.00 0.18 0.00 89 1004.1
20190122083038 35 221 8.0 12.0 0.00 0.18 0.00 89 1004.1
20190122082518 35 221 9.0 12.0 0.00 0.18 0.00 89 1004.2
20190122082038 36 225 9.0 12.0 0.00 0.18 0.00 89 1004.1
20190122081518 36 230 7.0 14.0 0.00 0.18 0.00 89 1004.2
20190122081038 36 230 10.0 14.0 0.00 0.18 0.00 90 1004.3
20190122080519 36 230 8.0 12.0 0.00 0.18 0.00 90 1004.3
20190122080017 36 230 6.0 10.0 0.00 0.18 0.00 90 1004.4
20190122075518 36 230 8.0 10.0 0.00 0.18 0.00 89 1004.4
20190122075038 36 230 7.0 12.0 0.00 0.18 0.00 89 1004.5
20190122074518 36 230 7.0 12.0 0.00 0.18 0.00 89 1004.5
20190122074038 36 230 7.0 14.0 0.00 0.18 0.00 89 1004.4
20190122073517 36 229 8.0 12.0 0.00 0.18 0.00 89 1004.5
20190122073038 36 230 9.0 12.0 0.00 0.18 0.00 89 1004.5
20190122072517 36 230 9.0 12.0 0.00 0.18 0.00 89 1004.6
20190122072044 36 229 9.0 12.0 0.00 0.18 0.00 89 1004.7
20190122071518 36 231 8.0 12.0 0.00 0.18 0.00 89 1004.6
20190122071038 36 229 10.0 17.0 0.00 0.18 0.00 89 1004.7
20190122070518 36 223 9.0 12.0 0.00 0.18 0.00 89 1004.7
20190122070017 36 223 9.0 14.0 0.00 0.18 0.00 89 1004.6
20190122065518 36 226 9.0 12.0 0.00 0.18 0.00 89 1004.6
20190122065038 36 229 10.0 14.0 0.00 0.18 0.00 89 1004.6
20190122064518 36 229 8.0 12.0 0.00 0.18 0.00 89 1004.7
20190122064038 35 229 9.0 12.0 0.00 0.18 0.00 89 1004.7
20190122063518 35 229 7.0 12.0 0.00 0.18 0.00 89 1004.8
20190122063038 35 229 9.0 13.0 0.00 0.18 0.00 89 1004.8
20190122062518 36 234 7.0 12.0 0.00 0.18 0.00 89 1004.8
20190122062038 36 234 7.0 12.0 0.00 0.18 0.00 89 1004.9
20190122061517 36 234 6.0 9.0 0.00 0.18 0.00 89 1004.9
20190122061040 36 234 7.0 10.0 0.00 0.18 0.00 89 1005.0
20190122060518 36 234 7.0 10.0 0.00 0.18 0.00 89 1004.9
20190122060021 36 234 7.0 10.0 0.00 0.18 0.00 89 1004.9
20190122055517 36 234 8.0 10.0 0.00 0.18 0.00 89 1005.0
20190122055037 37 234 7.0 12.0 0.00 0.18 0.00 89 1005.0
20190122054517 37 234 7.0 10.0 0.00 0.18 0.00 89 1005.1
20190122054042 37 234 9.0 12.0 0.00 0.18 0.00 89 1005.2
20190122053517 37 236 7.0 12.0 0.00 0.18 0.00 89 1005.1
20190122053037 37 238 7.0 12.0 0.00 0.18 0.00 89 1005.2
20190122052517 37 238 6.0 10.0 0.00 0.18 0.00 89 1005.2
20190122052037 37 238 7.0 13.0 0.00 0.18 0.00 89 1005.2
20190122051518 37 238 9.0 13.0 0.00 0.18 0.00 89 1005.3
20190122051037 37 239 9.0 13.0 0.00 0.18 0.00 89 1005.2
20190122050517 37 238 9.0 14.0 0.00 0.18 0.00 89 1005.2
20190122050018 37 238 9.0 13.0 0.00 0.18 0.00 89 1005.1
20190122045517 37 239 9.0 12.0 0.00 0.18 0.00 89 1005.3
20190122045038 37 240 9.0 12.0 0.00 0.18 0.00 89 1005.2
20190122044517 37 240 8.0 10.0 0.00 0.18 0.00 89 1005.2
20190122044038 37 240 9.0 13.0 0.00 0.18 0.00 89 1005.2
20190122043517 37 240 7.0 10.0 0.00 0.18 0.00 89 1005.2
20190122043037 37 240 9.0 12.0 0.00 0.18 0.00 89 1005.3
20190122042517 36 241 9.0 12.0 0.00 0.18 0.00 89 1005.3
20190122042038 36 243 8.0 12.0 0.00 0.18 0.00 89 1005.4
20190122041517 36 244 9.0 12.0 0.00 0.18 0.00 89 1005.5
20190122041037 37 246 9.0 12.0 0.00 0.18 0.00 89 1005.5
20190122040517 37 246 9.0 12.0 0.00 0.18 0.00 89 1005.5
20190122040017 37 247 9.0 12.0 0.00 0.18 0.00 89 1005.3
20190122035517 37 248 10.0 13.0 0.00 0.18 0.00 89 1005.3
20190122035036 37 248 10.0 15.0 0.00 0.18 0.00 89 1005.5
20190122034517 37 248 12.0 15.0 0.00 0.18 0.00 89 1005.4
20190122034039 37 246 11.0 14.0 0.00 0.18 0.00 89 1005.6
20190122033516 37 244 12.0 15.0 0.00 0.18 0.00 89 1005.6
20190122033037 38 254 10.0 15.0 0.00 0.18 0.00 89 1005.7
20190122032516 38 257 10.0 13.0 0.00 0.18 0.00 89 1005.7
20190122032037 38 257 10.0 14.0 0.00 0.18 0.00 89 1005.7